Change the Weather History Date:

Friday, November 9, 2012

  Actual Average Record
Temperature  
Mean Temperature 53 °F 41 °F  
Max Temperature 68 °F 54 °F 74 °F (1978)
Min Temperature 38 °F 28 °F -2 °F (1950)
Degree Days  
Heating Degree Days 12 24  
Month to date heating degree days 135 202  
Since 1 July heating degree days 733 876  
Cooling Degree Days 0 0  
Month to date cooling degree days 0 0  
Year to date cooling degree days 873 455  
Growing Degree Days 4 (Base 50)    
Moisture  
Dew Point 24 °F    
Average Humidity 35    
Maximum Humidity 54    
Minimum Humidity 15    
Precipitation  
Precipitation 0.00 in 0.01 in 0.46 in (1939)
Month to date precipitation 0.00 0.14  
Year to date precipitation 7.83 15.94  
Snow  
Snow 0.00 in 0.10 in 3.60 in (1975)
Month to date snowfall 0.0 1.2  
Since 1 July snowfall 0.6 4.3  
Since 1 September snowfall 0.6 4.3  
Snow Depth 0.00 in    
Sea Level Pressure  
Sea Level Pressure 29.59 in    
Wind  
Wind Speed 13 mph (SSW)    
Max Wind Speed 37 mph    
Max Gust Speed 44 mph    
Visibility 10 miles    
Events      
T = Trace of Precipitation, MM = Missing Value Source: NWS Daily Summary

Daily Weather History Graph

Daily Weather History Graph

Search for Another Location

Airport or City:

Trip Planner

Search our weather history database for the weather conditions in past years. The results will help you decide how hot, cold, wet, or windy it might be!

Date:

Astronomy

Nov. 09, 2012 Rise Set
Actual Time 6:35 AM MST 4:49 PM MST
Civil Twilight 6:07 AM MST 5:17 PM MST
Nautical Twilight 5:35 AM MST 5:49 PM MST
Astronomical Twilight 5:03 AM MST 6:20 PM MST
Moon 1:39 AM MST (11/9) 2:01 PM MST (11/9)
Length of Visible Light 11h 10m
Length of Day
10h 14m
Waning Crescent, 22% of the Moon is Illuminated
Nov 9
Waning Crescent
Nov 13
New
Nov 20
First Quarter
Nov 28
Full
Dec 6
Last Quarter

Hourly Weather History & Observations

Time (MST) Temp. Windchill Dew Point Humidity Pressure Visibility Wind Dir Wind Speed Gust Speed Precip Events Conditions
12:54 AM 39.0 °F 33.4 °F 23.0 °F 53% 29.71 in 10.0 mi NNE 8.1 mph - N/A   Clear
1:54 AM 42.1 °F 38.4 °F 25.0 °F 51% 29.69 in 10.0 mi North 5.8 mph - N/A   Clear
2:54 AM 39.0 °F 34.8 °F 25.0 °F 57% 29.68 in 10.0 mi NNE 5.8 mph - N/A   Clear
3:54 AM 43.0 °F 41.3 °F 24.1 °F 47% 29.66 in 10.0 mi North 3.5 mph - N/A   Clear
4:54 AM 43.0 °F 37.7 °F 24.1 °F 47% 29.67 in 10.0 mi South 9.2 mph - N/A   Clear
5:54 AM 44.1 °F 39.0 °F 24.1 °F 45% 29.68 in 10.0 mi SE 9.2 mph - N/A   Clear
6:54 AM 48.9 °F - 23.0 °F 36% 29.66 in 10.0 mi Variable 3.5 mph - N/A   Scattered Clouds
7:54 AM 52.0 °F - 24.1 °F 34% 29.68 in 10.0 mi WSW 3.5 mph - N/A   Scattered Clouds
8:54 AM 57.0 °F - 25.0 °F 29% 29.63 in 10.0 mi SW 4.6 mph - N/A   Partly Cloudy
9:54 AM 63.0 °F - 26.1 °F 25% 29.60 in 10.0 mi South 9.2 mph - N/A   Partly Cloudy
10:54 AM 64.9 °F - 24.1 °F 21% 29.60 in 10.0 mi West 5.8 mph - N/A   Partly Cloudy
11:54 AM 66.9 °F - 21.0 °F 17% 29.57 in 10.0 mi SSW 10.4 mph - N/A   Partly Cloudy
12:54 PM 68.0 °F - 19.9 °F 16% 29.53 in 10.0 mi SW 21.9 mph 31.1 mph N/A   Scattered Clouds
1:54 PM 66.9 °F - 19.0 °F 16% 29.51 in 10.0 mi SW 23.0 mph 43.7 mph N/A   Scattered Clouds
2:54 PM 64.0 °F - 21.0 °F 19% 29.55 in 10.0 mi WSW 13.8 mph 27.6 mph N/A   Partly Cloudy
3:54 PM 64.0 °F - 19.9 °F 18% 29.53 in 10.0 mi SW 18.4 mph 28.8 mph N/A   Partly Cloudy
4:54 PM 57.9 °F - 25.0 °F 28% 29.57 in 10.0 mi South 19.6 mph - N/A   Partly Cloudy
5:54 PM 57.0 °F - 24.1 °F 28% 29.56 in 10.0 mi SSW 23.0 mph 31.1 mph N/A   Partly Cloudy
6:54 PM 53.1 °F - 25.0 °F 34% 29.57 in 10.0 mi South 20.7 mph - N/A   Partly Cloudy
7:54 PM 54.0 °F - 27.0 °F 35% 29.54 in 10.0 mi SSW 19.6 mph - N/A   Partly Cloudy
8:54 PM 53.1 °F - 28.9 °F 40% 29.54 in 10.0 mi SSW 19.6 mph 28.8 mph N/A   Partly Cloudy
9:54 PM 50.0 °F - 28.9 °F 44% 29.51 in 10.0 mi SSE 13.8 mph - N/A   Clear
10:54 PM 48.9 °F - 28.9 °F 46% 29.50 in 10.0 mi South 15.0 mph 18.4 mph N/A   Clear
11:54 PM 50.0 °F - 25.0 °F 38% 29.47 in 10.0 mi SSW 15.0 mph - N/A   Clear